Location: Krakow
(50.0830°N, 19.9170°E)
Time: 18:15:24
(UTC+01:00)

Transit 2A - Pass Details

Date: 16 February 2023
Orbit: 591 x 964 km, 66.7° (Epoch: 21 March)

Event Time Altitude Azimuth Distance (km) Brightness Sun altitude
Rises 15:03:50 0° 241° (WSW) 3,109 10.8 15.2°
Reaches altitude 10° 15:06:12 10° 249° (WSW) 2,249 10.1 14.9°
Maximum altitude 15:11:05 41° 319° (NW) 1,144 7.1 14.3°
Drops below altitude 10° 15:16:31 10° 30° (NNE) 2,502 8.1 13.6°
Sets 15:19:17 0° 37° (NE) 3,499 8.8 13.3°
